Lid_Strength_Index
-0 -0 0 0 1 1 1 1 1 1 1 1 1 1 1 1 1 1 1 1 1 1 1 1 2 1 2 5 4 -0 -1 -1 0 3 4 4 5 6 7 8 9 9 9 10 10 8 7
0 0 0 1 1 1 1 1 1 1 1 1 1 1 1 1 1 1 2 2 1 1 1 2 2 2 3 7 3 -1 0 2 2 3 4 4 5 5 6 8 8 8 9 10 9 9 9
-0 0 1 1 1 1 1 1 1 1 1 1 1 1 1 1 1 1 1 1 1 1 2 2 2 2 4 4 2 0 1 2 3 3 4 4 4 5 6 8 8 9 9 9 8 9 9
-0 -0 0 1 1 2 2 2 2 1 2 1 1 1 1 1 1 1 1 1 1 2 2 2 1 2 6 1 1 2 2 3 3 2 3 3 3 5 6 7 8 10 9 11 9 8 8
0 0 -0 0 1 2 2 2 2 2 2 2 2 1 1 1 1 1 1 2 2 2 2 1 3 3 6 1 3 2 3 4 4 3 3 4 4 6 7 9 10 10 11 11 9 8 7
2 -0 0 0 0 1 2 2 2 2 2 2 2 1 1 2 1 2 2 2 2 2 2 1 2 6 4 5 3 4 3 3 3 4 5 5 7 8 9 9 12 11 11 11 10 8 7
1 1 0 0 1 0 1 1 2 2 2 2 2 2 1 2 2 2 2 3 5 5 4 5 6 6 5 3 3 5 4 3 4 5 7 7 8 10 9 8 9 9 11 11 10 9 8
1 2 -0 0 0 0 0 1 2 2 2 2 2 2 2 1 2 2 4 6 5 3 6 4 4 4 3 3 5 5 3 4 5 8 7 8 9 8 7 8 9 10 10 11 10 9 9
2 2 -0 0 0 0 0 0 1 2 2 2 2 2 2 2 2 3 4 5 3 2 7 6 4 4 4 3 5 5 3 5 7 8 9 9 8 7 8 9 9 9 10 10 10 10 9
2 3 1 0 0 0 0 1 1 2 2 2 2 2 2 2 4 4 6 4 4 4 10 9 6 5 4 4 5 4 3 4 7 9 9 8 7 8 9 9 9 11 8 9 10 11 12
2 2 3 1 1 1 1 1 1 2 2 2 2 2 2 2 5 5 4 1 4 5 16 7 7 3 5 6 6 5 4 5 8 9 8 9 8 9 9 9 8 10 8 9 10 10 11
2 3 3 2 1 1 2 1 2 2 2 2 2 2 2 3 5 4 2 3 5 12 16 9 7 7 7 6 6 6 5 5 6 8 7 8 7 8 8 8 8 7 9 9 10 11 15
2 2 3 4 1 1 2 2 2 2 3 2 2 2 2 2 4 1 3 6 11 16 8 10 9 7 8 8 7 7 8 8 9 11 12 9 9 7 7 9 8 8 11 15 17 17 17
2 2 3 4 2 2 2 2 3 3 3 3 3 3 3 2 2 3 5 9 14 10 10 8 8 8 9 8 8 8 9 10 8 9 11 12 13 9 7 8 10 10 11 16 19 19 16
1 2 3 4 2 2 2 2 3 3 4 3 3 4 4 2 4 4 8 12 12 11 8 9 8 10 9 8 9 9 10 10 9 8 11 12 12 8 8 8 8 10 12 10 14 15 16
1 2 3 4 2 2 2 3 2 3 4 3 4 5 4 1 3 5 9 11 10 8 8 8 10 9 11 10 10 10 10 8 9 8 7 9 13 9 8 8 8 9 9 13 13 18 18
1 3 4 4 4 3 3 3 2 3 3 2 4 6 4 2 5 7 11 11 9 7 6 8 9 10 10 10 10 10 10 8 7 8 8 9 10 11 9 10 10 10 11 11 11 13 16
2 4 4 4 3 3 3 3 3 3 2 2 6 9 3 6 9 9 10 9 8 7 6 7 7 8 9 9 10 11 11 9 7 7 9 9 11 13 11 9 8 9 10 10 14 15 14
4 4 4 4 3 3 3 3 3 3 2 4 7 7 2 6 11 12 8 8 7 8 8 7 8 7 7 10 12 10 10 7 7 8 9 9 11 15 13 11 9 10 10 11 12 12 14
5 5 5 4 3 3 3 3 3 3 2 3 6 10 7 7 8 9 9 9 9 7 7 7 8 7 9 10 9 11 10 7 8 8 8 8 12 12 15 12 11 11 11 11 11 14 14
5 5 4 3 3 3 3 3 3 3 2 4 6 8 7 11 9 9 9 9 9 10 7 7 8 8 9 12 11 11 10 9 9 8 8 8 11 12 12 12 11 12 12 11 12 11 13
5 4 4 3 4 3 3 3 3 3 3 4 7 8 8 8 7 8 10 9 9 9 8 8 9 8 8 10 10 12 10 10 11 9 9 9 12 12 13 12 12 12 12 12 11 11 11
4 4 4 4 4 3 4 3 3 2 2 5 5 5 6 10 8 10 10 9 9 8 7 7 7 9 10 8 8 8 8 8 9 9 10 11 12 13 15 14 14 15 12 11 11 11 10
4 4 4 4 4 4 4 3 3 2 3 3 4 5 8 11 9 10 9 8 8 7 9 7 7 8 8 7 8 8 9 8 8 9 9 12 14 16 15 17 17 12 10 10 11 10 10
4 4 4 4 4 4 3 3 3 3 2 3 4 5 8 13 10 8 8 9 8 7 8 8 7 7 7 9 11 12 13 13 12 11 11 11 13 16 15 16 15 13 12 11 11 11 9
4 4 4 4 3 3 3 3 3 2 2 3 4 5 7 10 10 7 8 8 9 10 9 8 6 7 9 13 14 15 15 12 13 12 10 12 13 12 17 16 17 13 11 8 9 13 9
4 4 4 3 4 3 4 4 3 3 3 3 4 5 5 8 6 6 8 9 8 9 10 9 8 8 9 14 15 14 14 13 14 15 14 13 14 14 19 15 14 11 10 8 13 11 9
4 3 4 4 4 4 4 4 4 3 3 3 4 4 5 8 6 5 5 8 8 8 10 9 9 9 12 13 13 14 14 14 13 13 13 13 14 15 17 16 16 10 8 11 8 8 8
4 4 4 5 4 4 4 4 3 3 3 3 4 3 4 6 5 4 4 4 4 5 8 9 8 9 9 12 14 14 14 14 14 14 11 13 11 12 12 12 9 9 7 7 7 8 7